Flag for New Zealand Weather past 2 weeks in Wellington, New Zealand

Now
68 °F

Broken clouds.


Feels Like: 68 °F
Forecast: 63 / 70 °F
Wind: 9 mph from Northeast

Location: Wellington Airport

Current Time: Feb 1, 2015 at 7:33:59 AM

Latest Report: Feb 1, 2015 at 7:00 AM


Visibility: N/A

Pressure: 29.86 "Hg

Humidity: 88%

Dew point: 64 °F

Location of WellingtonLocation

Historic Weather in Wellington — Graph

°F

Wellington temperature yesterday

Maximum temperature yesterday: 66 °F (at 11:30 AM)
Minimum temperature yesterday: 63 °F (at 12:00 AM)
Average temperature yesterday: 64 °F

Past Weeks' High & Low Weather Summary

 TemperatureHumidityPressure
High81 °F (Jan 26, 3:00 PM)94% (Jan 17, 6:00 AM)30.30 "Hg (Jan 17, 6:00 AM)
Low52 °F (Jan 23, 6:30 AM)33% (Jan 20, 2:30 PM)29.50 "Hg (Jan 18, 6:00 PM)
Average66 °F72%29.96 "Hg
* Reported Jan 17 6:00 AM — Feb 1 6:30 AM, Wellington, Weather by CustomWeather, © 2014

Note: Actual official high and low records may vary slightly from our data, if they occured in-between our weather recording intervals... More about our weather records

Advertising

Wellington weather history for previous 24 hours

 ConditionsComfort  
Time TempWeatherWind HumidityBarometerVisibility
6:30 AM
Feb 1
68 °FBroken clouds.10 mph88%29.86 "HgN/A
6:00 AM68 °FPassing clouds.10 mph88%29.86 "HgN/A
5:30 AM68 °FOvercast.10 mph88%29.86 "HgN/A
5:00 AM68 °FMostly cloudy.8 mph88%29.86 "HgN/A
4:30 AM68 °FOvercast.7 mph88%29.89 "HgN/A
4:00 AM68 °FOvercast.7 mph88%29.89 "HgN/A
3:30 AM68 °FOvercast.7 mph88%29.89 "HgN/A
3:00 AM68 °FOvercast.8 mph88%29.89 "HgN/A
2:30 AM68 °FOvercast.9 mph88%29.89 "HgN/A
2:00 AM68 °FMostly cloudy.9 mph83%29.92 "HgN/A
1:30 AM68 °FPassing clouds.10 mph83%29.92 "HgN/A
1:00 AM68 °FPassing clouds.9 mph83%29.92 "HgN/A
12:30 AM68 °FMostly cloudy.9 mph83%29.95 "HgN/A
12:00 AM66 °FPassing clouds.6 mph88%29.95 "HgN/A
11:30 PM
Jan 31
66 °FPassing clouds.8 mph88%29.95 "HgN/A
11:00 PM66 °FPassing clouds.8 mph88%29.95 "HgN/A
10:30 PM66 °FMostly cloudy.7 mph88%29.95 "HgN/A
10:00 PM64 °FOvercast.1 mph94%29.95 "HgN/A
9:30 PM63 °FOvercast.5 mph94%29.92 "HgN/A
9:00 PM63 °FPassing clouds.3 mph94%29.92 "HgN/A
8:30 PM64 °FScattered clouds.6 mph88%29.92 "HgN/A
8:00 PM64 °FBroken clouds.6 mph88%29.92 "HgN/A
7:30 PM66 °FMild.7 mph88%29.92 "HgN/A
7:00 PM64 °FPassing clouds.8 mph94%29.92 "HgN/A
6:30 PM64 °FScattered clouds.13 mph94%29.92 "HgN/A
6:00 PM64 °FPartly sunny.14 mph94%29.92 "HgN/A
5:30 PM64 °FScattered clouds.15 mph94%29.95 "HgN/A
5:00 PM66 °FPartly sunny.15 mph88%29.95 "HgN/A
4:00 PM64 °FPartly sunny.16 mph88%29.95 "HgN/A
3:30 PM66 °FScattered clouds.16 mph88%29.95 "HgN/A
3:00 PM66 °FPartly sunny.14 mph83%29.98 "HgN/A
2:30 PM66 °FScattered clouds.14 mph83%29.98 "HgN/A
2:00 PM64 °FScattered clouds.13 mph88%29.98 "HgN/A
1:30 PM64 °FBroken clouds.13 mph88%29.98 "HgN/A
1:00 PM64 °FMild.13 mph88%29.98 "HgN/A
12:30 PM66 °FPassing clouds.14 mph83%29.98 "HgN/A
12:00 PM66 °FMild.14 mph83%30.01 "HgN/A
11:30 AM66 °FMild.15 mph83%30.01 "HgN/A
11:00 AM64 °FMild.13 mph83%30.01 "HgN/A
10:30 AM64 °FPassing clouds.15 mph88%30.01 "HgN/A
9:30 AM63 °FPassing clouds.14 mph94%30.01 "HgN/A
9:00 AM63 °FLight rain. Partly sunny.14 mph94%30.04 "HgN/A
8:30 AM63 °FBroken clouds.14 mph88%30.04 "HgN/A
8:00 AM63 °FPartly sunny.12 mph88%30.01 "HgN/A
7:30 AM63 °FPartly sunny.14 mph88%30.01 "HgN/A
7:00 AM63 °FPartly sunny.14 mph88%30.01 "HgN/A
Weather by CustomWeather, © 2014

See weather overviewHow to use our weather pages